When you browse on this site, cookies collect data to enhance your experience and personalize the content and advertising you see.
Visit our Privacy Policy to learn more. By continuing to use the site, you agree to this use of cookies and data.
  • In Österreich
  • Länderverzeichnis
  • Für 7 Tage
  • Wassertemperatur
  • Wetterkarte
  • News
  • Widgets
  • user-avatar
    Anmelden

    Stündliche Wetter Perinovo

    Heute, 29 Mai, Freitag

    Zeit Temperatur Niederschläge Wind Luftdruck Luftfeuchtigkeit
    00:00 +10°C° 0.1 mm 2 m/S 750 mmHg 94%
    01:00 +11°C° 0.1 mm 1 m/S 750 mmHg 94%
    02:00 +11°C° 0 mm 1 m/S 750 mmHg 95%
    03:00 +11°C° 0.3 mm 1 m/S 749 mmHg 95%
    04:00 +11°C° 0.3 mm 1 m/S 749 mmHg 95%
    05:00 +11°C° 0.3 mm 1 m/S 749 mmHg 96%
    06:00 +11°C° 0.3 mm 3 m/S 749 mmHg 94%
    07:00 +12°C° 0.3 mm 4 m/S 749 mmHg 92%
    08:00 +12°C° 0 mm 5 m/S 749 mmHg 91%
    09:00 +12°C° 0.3 mm 5 m/S 748 mmHg 91%
    10:00 +11°C° 0.3 mm 6 m/S 748 mmHg 91%
    11:00 +11°C° 0.3 mm 6 m/S 748 mmHg 90%
    12:00 +11°C° 0.2 mm 6 m/S 748 mmHg 90%
    13:00 +11°C° 0.2 mm 6 m/S 748 mmHg 89%
    14:00 +11°C° 0.2 mm 6 m/S 748 mmHg 88%
    15:00 +11°C° 0 mm 6 m/S 748 mmHg 86%
    16:00 +11°C° 0 mm 7 m/S 748 mmHg 84%
    17:00 +12°C° 0 mm 7 m/S 747 mmHg 82%
    18:00 +11°C° 0 mm 6 m/S 747 mmHg 82%
    19:00 +11°C° 0 mm 6 m/S 747 mmHg 82%
    20:00 +12°C° 0 mm 5 m/S 747 mmHg 82%
    21:00 +10°C° 0 mm 5 m/S 747 mmHg 82%
    22:00 +10°C° 0 mm 5 m/S 746 mmHg 83%
    23:00 +10°C° 0 mm 5 m/S 746 mmHg 83%

    Morgen, 30 Mai, Samstag

    Zeit Temperatur Niederschläge Wind Luftdruck Luftfeuchtigkeit
    00:00 +10°C° 0 mm 5 m/S 746 mmHg 84%
    01:00 +10°C° 0 mm 5 m/S 745 mmHg 84%
    02:00 +11°C° 0 mm 6 m/S 745 mmHg 85%
    03:00 +10°C° 0.1 mm 6 m/S 744 mmHg 87%
    04:00 +10°C° 0.1 mm 5 m/S 744 mmHg 89%
    05:00 +10°C° 0.1 mm 5 m/S 743 mmHg 91%
    06:00 +11°C° 0.2 mm 6 m/S 743 mmHg 91%
    07:00 +11°C° 0.2 mm 6 m/S 743 mmHg 91%
    08:00 +11°C° 0.2 mm 6 m/S 743 mmHg 92%
    09:00 +11°C° 1.4 mm 6 m/S 742 mmHg 93%
    10:00 +11°C° 1.4 mm 6 m/S 742 mmHg 95%
    11:00 +11°C° 1.4 mm 6 m/S 742 mmHg 96%
    12:00 +11°C° 1 mm 6 m/S 741 mmHg 96%
    13:00 +11°C° 1 mm 6 m/S 741 mmHg 95%
    14:00 +13°C° 1 mm 6 m/S 741 mmHg 95%
    15:00 +13°C° 1.2 mm 6 m/S 740 mmHg 95%
    16:00 +13°C° 1.2 mm 6 m/S 739 mmHg 96%
    17:00 +13°C° 1.2 mm 6 m/S 739 mmHg 96%
    18:00 +14°C° 3.1 mm 6 m/S 738 mmHg 96%
    19:00 +14°C° 3.1 mm 7 m/S 738 mmHg 96%
    20:00 +14°C° 3.1 mm 7 m/S 737 mmHg 96%
    21:00 +13°C° 1.3 mm 8 m/S 737 mmHg 96%
    22:00 +13°C° 1.3 mm 8 m/S 737 mmHg 95%
    23:00 +15°C° 1.3 mm 8 m/S 737 mmHg 95%

    übermorgen, 31 Mai, Sonntag

    Zeit Temperatur Niederschläge Wind Luftdruck Luftfeuchtigkeit
    00:00 +14°C° 0.6 mm 7 m/S 737 mmHg 96%
    01:00 +14°C° 0.6 mm 6 m/S 737 mmHg 96%
    02:00 +13°C° 0.6 mm 5 m/S 737 mmHg 96%
    03:00 +13°C° 0.1 mm 5 m/S 738 mmHg 96%
    04:00 +13°C° 0.1 mm 4 m/S 739 mmHg 96%
    05:00 +13°C° 0.1 mm 4 m/S 739 mmHg 96%
    06:00 +13°C° 0 mm 4 m/S 740 mmHg 95%
    07:00 +13°C° 0 mm 3 m/S 741 mmHg 94%
    08:00 +14°C° 0 mm 3 m/S 741 mmHg 93%
    09:00 +13°C° 0.7 mm 4 m/S 742 mmHg 94%
    10:00 +13°C° 0.7 mm 4 m/S 742 mmHg 95%
    11:00 +13°C° 0.7 mm 5 m/S 743 mmHg 95%
    12:00 +13°C° 0.7 mm 6 m/S 743 mmHg 94%
    13:00 +13°C° 0.7 mm 6 m/S 744 mmHg 93%
    14:00 +12°C° 0.7 mm 7 m/S 744 mmHg 92%
    15:00 +13°C° 0.1 mm 6 m/S 745 mmHg 90%
    16:00 +13°C° 0.1 mm 5 m/S 745 mmHg 87%
    17:00 +13°C° 0.1 mm 5 m/S 745 mmHg 84%
    18:00 +13°C° 0 mm 4 m/S 746 mmHg 84%
    19:00 +13°C° 0 mm 4 m/S 746 mmHg 84%
    20:00 +13°C° 0 mm 4 m/S 746 mmHg 84%
    21:00 +12°C° 0 mm 4 m/S 747 mmHg 85%
    22:00 +11°C° 0 mm 4 m/S 747 mmHg 85%
    23:00 +10°C° 0 mm 4 m/S 747 mmHg 85%

    1 Juni, Montag

    Zeit Temperatur Niederschläge Wind Luftdruck Luftfeuchtigkeit
    00:00 +10°C° 0 mm 4 m/S 748 mmHg 83%
    01:00 +10°C° 0 mm 4 m/S 748 mmHg 81%
    02:00 +9°C° 0 mm 5 m/S 748 mmHg 79%
    03:00 +8°C° 0 mm 5 m/S 749 mmHg 79%
    04:00 +8°C° 0 mm 5 m/S 749 mmHg 79%
    05:00 +7°C° 0 mm 5 m/S 749 mmHg 79%
    06:00 +8°C° 0 mm 6 m/S 749 mmHg 74%
    07:00 +9°C° 0 mm 6 m/S 750 mmHg 70%
    08:00 +10°C° 0 mm 7 m/S 750 mmHg 65%
    09:00 +11°C° 0 mm 7 m/S 750 mmHg 62%
    10:00 +13°C° 0 mm 6 m/S 751 mmHg 60%
    11:00 +13°C° 0 mm 6 m/S 751 mmHg 57%
    12:00 +14°C° 0 mm 6 m/S 751 mmHg 57%
    13:00 +14°C° 0 mm 6 m/S 750 mmHg 57%
    14:00 +14°C° 0 mm 6 m/S 750 mmHg 57%
    15:00 +14°C° 0 mm 6 m/S 750 mmHg 58%
    16:00 +13°C° 0 mm 5 m/S 750 mmHg 60%
    17:00 +13°C° 0 mm 5 m/S 750 mmHg 61%
    18:00 +12°C° 0 mm 4 m/S 750 mmHg 67%
    19:00 +11°C° 0 mm 3 m/S 750 mmHg 73%
    20:00 +9°C° 0 mm 2 m/S 750 mmHg 79%
    21:00 +8°C° 0 mm 2 m/S 750 mmHg 80%
    22:00 +8°C° 0 mm 2 m/S 750 mmHg 82%
    23:00 +7°C° 0 mm 2 m/S 750 mmHg 84%

    2 Juni, Dienstag

    Zeit Temperatur Niederschläge Wind Luftdruck Luftfeuchtigkeit
    00:00 +6°C° 0 mm 2 m/S 750 mmHg 86%
    01:00 +6°C° 0 mm 2 m/S 750 mmHg 87%
    02:00 +5°C° 0 mm 2 m/S 750 mmHg 89%
    03:00 +5°C° 0 mm 2 m/S 750 mmHg 88%
    04:00 +5°C° 0 mm 2 m/S 749 mmHg 88%
    05:00 +5°C° 0 mm 2 m/S 749 mmHg 87%
    06:00 +7°C° 0 mm 2 m/S 749 mmHg 81%
    07:00 +9°C° 0 mm 3 m/S 749 mmHg 74%
    08:00 +11°C° 0 mm 3 m/S 749 mmHg 67%
    09:00 +12°C° 0.1 mm 3 m/S 749 mmHg 63%
    10:00 +13°C° 0.1 mm 3 m/S 749 mmHg 58%
    11:00 +14°C° 0.1 mm 4 m/S 749 mmHg 54%
    12:00 +15°C° 0.1 mm 4 m/S 749 mmHg 54%
    13:00 +15°C° 0.1 mm 4 m/S 748 mmHg 54%
    14:00 +15°C° 0.1 mm 4 m/S 748 mmHg 54%
    15:00 +16°C° 0.3 mm 3 m/S 748 mmHg 58%
    16:00 +16°C° 0.3 mm 3 m/S 747 mmHg 61%
    17:00 +14°C° 0.3 mm 3 m/S 747 mmHg 65%
    18:00 +13°C° 0.1 mm 3 m/S 747 mmHg 71%
    19:00 +13°C° 0.1 mm 2 m/S 747 mmHg 77%
    20:00 +10°C° 0.1 mm 2 m/S 747 mmHg 83%
    21:00 +9°C° 0 mm 2 m/S 747 mmHg 86%
    22:00 +8°C° 0 mm 2 m/S 747 mmHg 88%
    23:00 +8°C° 0 mm 1 m/S 747 mmHg 91%

    3 Juni, Mittwoch

    Zeit Temperatur Niederschläge Wind Luftdruck Luftfeuchtigkeit
    00:00 +8°C° 0 mm 1 m/S 747 mmHg 91%
    01:00 +7°C° 0 mm 1 m/S 746 mmHg 92%
    02:00 +7°C° 0 mm 1 m/S 746 mmHg 92%
    03:00 +7°C° 0 mm 1 m/S 746 mmHg 92%
    04:00 +7°C° 0 mm 1 m/S 746 mmHg 92%
    05:00 +7°C° 0 mm 1 m/S 746 mmHg 92%
    06:00 +9°C° 0 mm 1 m/S 746 mmHg 85%
    07:00 +11°C° 0 mm 1 m/S 746 mmHg 78%
    08:00 +13°C° 0 mm 1 m/S 746 mmHg 72%
    09:00 +14°C° 0.1 mm 1 m/S 746 mmHg 66%
    10:00 +15°C° 0.1 mm 2 m/S 745 mmHg 59%
    11:00 +17°C° 0.1 mm 2 m/S 745 mmHg 53%
    12:00 +17°C° 0 mm 2 m/S 745 mmHg 52%
    13:00 +17°C° 0 mm 2 m/S 745 mmHg 51%
    14:00 +18°C° 0 mm 2 m/S 744 mmHg 49%
    15:00 +17°C° 0 mm 2 m/S 744 mmHg 52%
    16:00 +17°C° 0 mm 2 m/S 744 mmHg 54%
    17:00 +17°C° 0 mm 2 m/S 744 mmHg 57%
    18:00 +15°C° 0.1 mm 1 m/S 744 mmHg 63%
    19:00 +14°C° 0.1 mm 1 m/S 744 mmHg 69%
    20:00 +12°C° 0.1 mm 1 m/S 744 mmHg 75%
    21:00 +11°C° 0 mm 1 m/S 744 mmHg 78%
    22:00 +9°C° 0 mm 0 m/S 744 mmHg 81%
    23:00 +8°C° 0 mm 0 m/S 744 mmHg 83%
    Mehr zeigen